GLENN Weather Reports


time (UTC)temp
C
wind
direction
speed
KPH
gust
KPH
rain 1hr
cm
rain 24hr
cm
rain mn
cm
humidity
%
barometer
mb
20260902060033 20 124 4.8 6.4 0.00 0.00 0.00 40 1013.3
20260902054543 20 99 3.2 11.3 0.00 0.00 0.00 39 1013.0
20260902053033 20 105 6.4 11.3 0.00 0.00 0.00 39 1012.9
20260902051517 20 134 8.0 22.5 0.00 0.00 0.00 39 1012.8
20260902050026 21 141 12.9 20.9 0.00 0.00 0.00 37 1013.2
20260902044529 21 163 11.3 24.1 0.00 0.00 0.00 38 1013.3
20260902043015 20 157 11.3 14.5 0.00 0.00 0.00 40 1013.1
20260902041519 20 123 4.8 8.0 0.00 0.00 0.00 43 1012.9
20260902040025 20 120 3.2 12.9 0.00 0.00 0.00 44 1013.0
20260902034505 20 100 9.7 14.5 0.00 0.00 0.00 44 1013.0
20260902033012 21 119 11.3 22.5 0.00 0.00 0.00 43 1013.0
20260902031512 21 134 12.9 27.4 0.00 0.00 0.00 41 1013.0
20260902030020 21 123 14.5 22.5 0.00 0.00 0.00 41 1012.8
20260902024505 21 110 11.3 16.1 0.00 0.00 0.00 42 1012.5
20260902023004 21 111 14.5 19.3 0.00 0.00 0.00 40 1012.5
20260902021517 21 95 9.7 14.5 0.00 0.00 0.00 42 1012.3
20260902020018 21 129 11.3 17.7 0.00 0.00 0.00 41 1012.5
20260902014531 21 131 11.3 16.1 0.00 0.00 0.00 41 1012.5
20260902013004 22 90 16.1 25.7 0.00 0.00 0.00 40 1012.1
20260902011510 22 88 11.3 17.7 0.00 0.00 0.00 39 1012.3
20260902010013 23 92 11.3 17.7 0.00 0.00 0.00 37 1012.2
20260902004526 23 136 4.8 8.0 0.00 0.00 0.00 33 1012.3
20260902003030 24 173 0.0 6.4 0.00 0.00 0.00 30 1012.5
20260902001508 25 123 1.6 14.5 0.00 0.00 0.00 26 1012.4
20260902000022 25 121 6.4 9.7 0.00 0.00 0.00 27 1012.6
20260901234517 26 312 1.6 6.4 0.00 0.00 0.00 24 1012.8
20260901233024 25 335 0.0 4.8 0.00 0.00 0.00 29 1013.0
20260901231533 25 53 3.2 4.8 0.00 0.00 0.00 27 1013.0
20260901230027 25 46 1.6 4.8 0.00 0.00 0.00 26 1013.2
20260901224520 25 85 0.0 6.4 0.00 0.00 0.00 25 1013.4
20260901223024 25 92 3.2 11.3 0.00 0.00 0.00 28 1013.5
20260901221526 25 9 1.6 4.8 0.00 0.00 0.00 27 1013.6
20260901220032 25 308 3.2 9.7 0.00 0.00 0.00 30 1013.9
20260901214512 25 251 6.4 14.5 0.00 0.00 0.00 28 1014.1
20260901213050 25 159 1.6 11.3 0.00 0.00 0.00 28 1014.2
20260901211536 24 225 4.8 14.5 0.00 0.00 0.00 33 1014.7
20260901210035 24 222 6.4 17.7 0.00 0.00 0.00 31 1014.9
20260901204531 23 218 6.4 16.1 0.00 0.00 0.00 33 1015.0
20260901203031 23 151 4.8 16.1 0.00 0.00 0.00 32 1015.2
20260901201523 23 179 11.3 17.7 0.00 0.00 0.00 32 1015.4
20260901200039 23 188 9.7 16.1 0.00 0.00 0.00 34 1015.5
20260901194530 22 128 6.4 24.1 0.00 0.00 0.00 37 1015.7
20260901193009 23 188 11.3 20.9 0.00 0.00 0.00 36 1015.9
20260901191513 21 95 11.3 16.1 0.00 0.00 0.00 37 1016.2
20260901190007 21 71 3.2 9.7 0.00 0.00 0.00 40 1016.4
20260901184509 20 329 4.8 9.7 0.00 0.00 0.00 43 1016.6
20260901183012 20 302 6.4 9.7 0.00 0.00 0.00 40 1016.6
20260901181516 20 96 1.6 12.9 0.00 0.00 0.00 39 1016.7
20260901180010 20 154 1.6 9.7 0.00 0.00 0.00 43 1016.8
20260901174508 20 145 4.8 22.5 0.00 0.00 0.00 41 1016.6
20260901173011 20 82 11.3 30.6 0.00 0.00 0.00 42 1016.6
20260901171520 20 172 22.5 29.0 0.00 0.00 0.00 41 1016.6
20260901170014 19 186 4.8 9.7 0.00 0.00 0.00 43 1016.5
20260901164510 18 196 6.4 14.5 0.00 0.00 0.00 45 1016.8
20260901163009 17 146 0.0 3.2 0.00 0.00 0.00 45 1017.0
20260901161512 16 69 1.6 3.2 0.00 0.00 0.00 42 1016.8
20260901160018 16 5 1.6 6.4 0.00 0.00 0.00 48 1016.6
20260901154518 17 34 1.6 11.3 0.00 0.00 0.00 43 1016.4
20260901153013 18 120 17.7 27.4 0.00 0.00 0.00 42 1016.5
20260901151512 15 146 8.0 17.7 0.00 0.00 0.00 43 1016.7
20260901150015 14 128 6.4 6.4 0.00 0.00 0.00 50 1017.1
20260901144520 14 78 0.0 3.2 0.00 0.00 0.00 58 1016.6
20260901143018 14 65 1.6 3.2 0.00 0.00 0.00 50 1016.6
20260901141507 14 220 1.6 3.2 0.00 0.00 0.00 52 1016.5
20260901140016 13 71 1.6 3.2 0.00 0.00 0.00 49 1016.3
20260901134520 12 123 3.2 3.2 0.00 0.00 0.00 51 1016.4
20260901133023 12 126 0.0 4.8 0.00 0.00 0.00 47 1016.3
20260901131526 13 78 1.6 3.2 0.00 0.00 0.00 44 1016.2
20260901130012 13 84 0.0 0.0 0.00 0.00 0.00 44 1016.2
20260901124517 12 76 0.0 3.2 0.00 0.00 0.00 44 1016.1
20260901123026 13 107 1.6 3.2 0.00 0.00 0.00 45 1016.1
20260901121534 14 86 1.6 3.2 0.00 0.00 0.00 41 1016.0
20260901120038 14 316 0.0 3.2 0.00 0.00 0.00 38 1015.7
20260901114517 15 84 0.0 1.6 0.00 0.00 0.00 37 1015.6
20260901113020 14 115 0.0 3.2 0.00 0.00 0.00 39 1015.7
20260901111526 14 90 0.0 4.8 0.00 0.00 0.00 39 1015.7
20260901110033 14 59 3.2 3.2 0.00 0.00 0.00 39 1016.0
20260901104532 15 117 0.0 0.0 0.00 0.00 0.00 38 1016.1
20260901103017 14 71 3.2 4.8 0.00 0.00 0.00 40 1016.0
20260901101504 13 15 0.0 1.6 0.00 0.00 0.00 41 1016.2
20260901100009 14 117 1.6 4.8 0.00 0.00 0.00 42 1016.2
20260901094516 15 61 4.8 4.8 0.00 0.00 0.00 39 1016.2
20260901093015 15 51 1.6 6.4 0.00 0.00 0.00 39 1016.4
20260901091525 15 118 3.2 8.0 0.00 0.00 0.00 39 1016.1
20260901090008 13 155 8.0 11.3 0.00 0.00 0.00 44 1016.3
20260901084507 15 211 3.2 4.8 0.00 0.00 0.00 41 1016.2
20260901083021 15 100 4.8 6.4 0.00 0.00 0.00 39 1016.3
20260901081519 13 80 1.6 3.2 0.00 0.00 0.00 42 1016.4
20260901080025 15 78 1.6 4.8 0.00 0.00 0.00 40 1016.6
20260901074504 15 87 0.0 0.0 0.00 0.00 0.00 39 1016.6
20260901073011 15 37 0.0 1.6 0.00 0.00 0.00 38 1016.4
20260901071517 16 59 0.0 4.8 0.00 0.00 0.00 36 1016.6
20260901070027 16 227 1.6 6.4 0.00 0.00 0.00 33 1016.6
20260901064538 16 107 0.0 4.8 0.00 0.00 0.00 35 1016.4
20260901063009 16 103 4.8 6.4 0.00 0.00 0.00 35 1016.5
20260901061515 16 191 0.0 4.8 0.00 0.00 0.00 34 1016.6